Date,TemperatureHighF,TemperatureAvgF,TemperatureLowF,DewpointHighF,DewpointAvgF,DewpointLowF,HumidityHigh,HumidityAvg,HumidityLow,PressureMaxIn,PressureMinIn,WindSpeedMaxMPH,WindSpeedAvgMPH,GustSpeedMaxMPH,PrecipitationSumIn
2013-1-1,36.3,32.2,25.3,11.4,1.2,-11.1,37,27,19,30.16,30.01,8,1,8,0.00
2013-1-2,36.7,26.6,19.0,-4.0,-10.4,-15.4,20,19,17,30.25,30.13,0,0,0,0.00
2013-1-3,42.1,29.0,19.8,-0.9,-8.0,-12.9,25,19,16,30.37,30.19,6,1,9,0.00
2013-1-4,44.6,31.8,25.5,-0.2,-5.1,-9.0,26,20,15,30.40,30.31,8,1,9,0.00
2013-1-5,42.1,35.0,27.0,-0.9,-3.8,-7.4,28,19,16,30.34,30.13,8,2,10,0.00
2013-1-6,40.6,34.4,25.2,7.6,-3.4,-10.9,31,19,16,30.34,30.07,8,3,12,0.00
2013-1-7,50.0,32.0,20.8,5.6,-5.4,-10.5,27,20,14,30.42,30.19,4,1,8,0.00
2013-1-8,55.8,38.6,26.1,49.0,19.4,-7.0,79,52,16,30.25,30.13,10,1,13,0.00
2013-1-9,61.0,48.6,42.8,53.7,43.2,38.8,91,82,77,30.42,30.16,4,1,8,0.00
2013-1-10,62.6,52.2,44.8,59.8,48.9,39.0,96,89,80,30.40,29.86,8,3,12,0.16
2013-1-11,65.8,59.1,55.2,59.4,54.1,49.4,98,84,76,29.95,29.80,11,6,17,0.75
2013-1-12,67.6,62.7,57.2,65.0,60.3,52.1,100,92,82,29.95,29.66,10,4,17,0.12
2013-1-13,67.6,39.2,27.9,62.3,37.4,22.8,97,93,81,30.22,29.66,11,4,16,2.99
2013-1-14,28.2,25.5,21.9,23.1,20.9,17.6,87,83,81,30.40,30.28,0,0,10,0.00
2013-1-15,32.5,28.0,22.8,30.0,24.6,20.0,96,87,81,30.28,30.04,0,0,0,0.00
2013-1-16,33.8,32.0,30.7,29.5,28.2,26.7,93,86,80,30.10,29.98,4,0,6,0.00
2013-1-17,47.1,35.6,29.3,41.3,31.2,25.8,95,84,77,30.40,30.07,11,3,13,0.00
2013-1-18,48.7,35.5,24.3,42.5,30.2,21.0,87,81,77,30.51,30.22,11,4,13,0.00
2013-1-19,57.0,45.8,36.1,50.2,39.5,30.6,80,78,77,30.22,29.95,17,9,25,0.00
2013-1-20,46.2,37.6,28.2,39.8,32.0,23.1,82,80,78,30.25,30.01,7,3,11,0.00
2013-1-21,30.6,26.6,20.5,25.4,21.7,16.1,83,81,81,30.28,30.16,9,3,18,0.00
2013-1-22,23.4,20.3,15.6,18.7,16.1,11.7,84,83,82,30.40,30.28,6,2,9,0.00
2013-1-23,45.1,30.1,18.3,38.7,25.0,14.0,83,81,78,30.34,30.07,10,2,11,0.00
2013-1-24,33.8,27.5,20.7,28.4,22.6,16.3,83,82,80,30.51,30.16,9,4,17,0.00
2013-1-25,37.9,28.9,25.3,32.0,24.6,21.0,95,84,79,30.25,30.07,7,2,9,0.00
2013-1-26,41.7,31.4,24.8,35.7,27.3,22.8,95,85,79,30.31,30.16,5,1,8,0.00
2013-1-27,47.1,36.1,23.7,42.8,32.9,20.8,96,88,80,30.31,30.04,6,3,9,0.00
2013-1-28,59.4,53.9,46.8,55.8,49.7,41.6,95,86,79,30.04,29.95,13,7,17,0.08
2013-1-29,68.4,61.3,54.9,61.4,56.6,51.5,90,85,78,29.95,29.39,14,8,23,0.00
2013-1-30,68.4,48.1,32.0,61.2,44.3,26.8,99,87,77,29.78,29.30,18,7,27,1.46
2013-1-31,40.6,31.7,19.8,34.7,26.6,15.4,95,81,79,30.25,29.78,12,6,20,0.00
2013-2-1,25.9,18.5,11.7,21.1,14.3,8.0,85,83,82,30.63,30.22,8,4,13,0.00
2013-2-2,42.1,33.1,25.7,36.0,27.7,21.0,82,80,79,30.25,29.95,11,4,14,0.00
2013-2-3,34.0,29.8,22.3,31.3,26.1,17.9,96,86,81,30.10,29.89,6,1,11,0.00
2013-2-4,48.2,36.0,22.6,41.9,32.1,18.4,96,86,77,30.04,29.75,9,4,15,0.04
2013-2-5,57.2,41.4,32.9,50.1,36.7,29.2,96,83,77,29.98,29.80,9,2,12,0.00
2013-2-6,52.9,39.2,28.9,46.5,34.0,27.2,94,82,77,30.16,29.98,6,1,8,0.00
2013-2-7,66.6,50.8,35.8,58.4,44.8,31.4,95,80,75,30.04,29.75,10,2,15,0.12
2013-2-8,51.3,38.1,34.2,49.9,33.2,28.6,95,82,79,30.28,29.78,10,5,15,0.08
2013-2-9,53.8,40.4,31.1,47.1,34.6,26.5,83,80,77,30.31,30.01,6,2,9,0.00
2013-2-10,55.4,49.2,40.5,49.5,44.1,34.5,94,82,78,30.01,29.66,14,6,17,0.24
2013-2-11,55.0,50.2,41.7,51.8,44.4,35.7,90,81,77,30.04,29.72,13,4,13,0.00
2013-2-12,51.6,45.3,30.2,45.3,39.4,27.9,93,80,77,30.07,29.78,4,0,8,0.00
2013-2-13,44.6,39.0,34.9,38.8,34.3,31.5,94,83,78,29.83,29.72,8,3,10,0.08
2013-2-14,59.4,45.5,35.1,52.2,40.8,33.8,96,84,77,29.92,29.80,13,4,14,0.00
2013-2-15,44.6,37.4,27.0,38.2,32.2,21.9,90,81,78,30.13,29.92,8,2,12,0.00
2013-2-16,36.9,29.4,24.6,31.3,24.5,19.9,85,82,80,30.10,30.04,8,2,13,0.00
2013-2-17,45.7,33.9,22.1,39.2,28.5,17.7,83,80,78,30.19,30.01,8,2,11,0.00
2013-2-18,61.7,48.1,36.1,54.4,42.3,30.6,93,81,77,30.01,29.63,28,10,30,0.51
2013-2-19,48.0,35.9,26.4,46.7,30.7,21.7,95,81,79,30.16,29.66,11,6,21,0.04
2013-2-20,31.5,26.7,22.3,26.3,21.9,17.9,83,82,81,30.31,30.16,6,2,9,0.00
2013-2-21,37.4,30.3,22.5,33.2,26.1,18.1,95,84,79,30.22,29.75,8,2,13,0.59
2013-2-22,48.0,40.3,34.3,42.2,36.8,28.8,100,87,80,29.95,29.75,14,4,14,0.00
2013-2-23,44.4,35.9,28.9,38.0,30.3,23.9,81,80,78,29.95,29.86,6,2,9,0.00
2013-2-24,51.6,37.0,25.0,45.3,31.5,20.8,86,80,77,30.07,29.92,5,1,7,0.00
2013-2-25,56.7,43.6,30.9,49.9,37.5,25.8,81,79,77,29.98,29.51,12,4,14,0.00
2013-2-26,50.0,44.7,40.3,48.7,41.1,35.8,100,88,77,29.54,29.27,11,5,14,0.51
2013-2-27,40.1,37.2,33.6,35.9,33.4,29.8,96,86,79,29.78,29.54,9,5,13,0.00
2013-2-28,38.7,35.1,33.1,33.7,31.5,29.4,96,87,82,29.95,29.75,8,3,11,0.00
2013-3-1,37.8,34.6,32.5,34.1,32.6,30.5,98,92,82,29.98,29.89,6,2,10,0.08
2013-3-2,34.5,32.0,30.2,32.1,28.3,25.3,97,86,80,30.07,29.95,6,1,9,0.00
2013-3-3,40.6,32.0,24.4,34.7,26.7,19.7,83,81,79,30.07,29.98,8,2,11,0.00
2013-3-4,52.3,41.2,28.8,46.0,35.2,23.7,83,79,77,30.04,29.75,9,4,14,0.00
2013-3-5,48.6,40.5,32.2,43.9,36.4,27.6,96,85,77,29.86,29.63,12,5,21,0.00
2013-3-6,34.9,33.2,32.0,29.4,28.4,27.8,86,82,80,30.25,29.86,10,5,17,0.00
2013-3-7,39.9,37.0,33.1,34.0,31.4,27.9,81,80,79,30.31,30.22,4,1,6,0.00
2013-3-8,56.7,42.1,28.0,49.9,36.3,24.4,88,80,77,30.37,30.19,8,2,10,0.00
2013-3-9,40.6,38.9,38.1,34.7,32.9,32.2,79,79,79,30.19,29.89,6,3,9,0.00
2013-3-10,38.8,38.8,38.8,32.9,32.9,32.9,79,79,79,29.89,29.66,14,6,26,0.12
2013-3-11,38.8,38.8,38.8,32.9,32.9,32.9,79,79,79,29.69,29.63,10,6,13,0.59
2013-3-14,30.4,29.9,24.4,25.3,24.9,20.6,85,81,81,30.37,30.10,8,4,11,0.00
2013-3-15,30.4,30.4,30.4,25.3,25.3,25.3,81,81,81,30.10,29.66,11,3,13,0.00
2013-3-16,30.4,30.4,30.4,25.3,25.3,25.3,81,81,81,29.92,29.60,11,6,17,0.00
2013-3-17,30.4,30.4,30.4,25.3,25.3,25.3,81,81,81,29.98,29.75,13,4,13,0.94
2013-3-18,30.4,30.4,30.4,25.3,25.3,25.3,81,81,81,29.86,29.57,10,3,14,1.02
2013-3-19,30.4,30.4,30.4,25.3,25.3,25.3,81,81,81,30.13,29.89,9,2,11,0.04
2013-3-20,43.3,33.6,22.8,34.0,19.9,8.6,100,60,39,29.76,29.65,13,3,16,10.68
2013-3-21,42.8,29.6,19.4,18.8,12.6,8.1,63,50,37,29.71,29.56,12,2,13,0.00
2013-3-22,46.9,36.4,26.4,22.0,18.0,13.8,65,48,34,29.65,29.56,8,2,8,0.00
2013-3-23,64.4,48.6,37.9,34.1,26.7,21.0,55,43,33,29.59,29.29,11,3,11,0.00
2013-3-24,48.9,39.7,33.3,43.5,36.8,29.1,98,90,47,29.35,28.94,17,5,17,0.66
2013-3-25,40.3,34.2,32.7,33.5,30.8,26.8,98,88,64,29.68,29.14,17,5,23,0.04
2013-3-26,47.1,36.9,30.4,30.8,26.7,20.6,94,68,46,29.91,29.65,10,3,11,0.00
2013-3-27,56.3,38.5,24.1,28.8,23.3,19.5,86,58,30,29.97,29.88,12,2,12,0.00
2013-3-28,64.6,45.2,28.2,31.6,26.7,23.2,88,53,25,30.00,29.82,9,2,9,0.00
2013-3-29,51.4,46.3,41.9,46.2,39.3,10.2,98,78,48,29.88,29.76,8,2,8,0.09
2013-3-30,63.1,48.3,34.2,48.8,41.5,33.7,98,81,46,29.82,29.47,10,2,10,0.25
2013-3-31,69.8,55.1,48.7,52.4,47.3,40.9,98,78,43,29.50,29.41,8,2,8,0.03
2013-4-1,58.6,47.1,34.7,46.5,31.6,20.6,93,58,30,29.74,29.41,10,4,15,0.00
2013-4-2,58.8,41.3,28.0,27.3,15.1,-9.8,80,45,6,29.88,29.79,8,2,21,0.00
2013-4-3,57.4,43.5,29.5,30.1,15.0,-9.5,72,41,7,29.94,29.82,15,3,15,0.00
2013-4-4,63.3,48.1,36.1,29.4,26.8,17.1,74,46,26,29.79,29.56,9,1,9,0.00
2013-4-5,73.9,52.6,32.9,38.8,31.8,19.6,92,53,14,29.71,29.59,15,2,15,0.00
2013-4-6,76.8,61.4,44.2,42.2,36.1,28.4,71,40,26,29.71,29.44,20,5,20,0.00
2013-4-7,76.1,65.8,57.6,52.9,45.9,37.1,63,49,41,29.56,29.47,18,6,18,0.00
2013-4-8,77.2,66.3,57.4,56.1,51.7,44.9,76,60,44,29.53,29.41,24,6,30,0.00
2013-4-9,82.8,71.2,61.7,62.8,58.8,52.6,81,66,46,29.62,29.47,21,6,23,0.00
2013-4-10,87.1,76.2,68.0,64.3,60.8,55.8,83,61,42,29.53,29.29,22,7,23,0.28
2013-4-11,75.7,61.4,46.9,64.1,58.5,40.3,98,91,49,29.32,29.14,23,4,28,1.83
2013-4-12,57.9,47.5,36.3,41.7,34.8,30.8,94,63,46,29.59,29.29,20,4,20,0.00
2013-4-13,70.2,52.4,34.9,40.0,35.4,30.0,88,56,33,29.68,29.53,10,2,13,0.00
2013-4-14,79.9,62.4,47.1,49.5,42.2,36.5,73,50,31,29.56,29.35,20,4,20,0.00
2013-4-15,80.2,66.9,56.3,58.2,54.3,49.7,87,66,44,29.56,29.41,9,4,9,0.00
2013-4-16,84.4,71.9,64.4,67.3,63.7,59.0,97,76,56,29.68,29.47,10,5,11,0.00
2013-4-17,89.2,71.5,60.4,70.9,63.7,59.9,98,80,49,29.68,29.41,12,3,12,0.00
2013-4-18,84.4,73.8,50.0,66.9,59.3,48.5,98,63,45,29.44,29.17,22,7,24,3.36
2013-4-19,49.5,45.0,40.3,48.2,33.6,27.8,98,65,48,29.65,29.20,15,4,15,0.49
2013-4-20,66.2,49.2,34.2,38.0,31.5,24.2,90,56,25,29.91,29.65,10,2,10,0.00
2013-4-21,72.1,53.8,38.7,37.1,30.5,25.2,68,44,20,30.03,29.82,10,2,11,0.00
2013-4-22,79.9,61.0,40.6,48.5,38.8,29.0,73,45,31,29.88,29.62,11,2,11,0.00
2013-4-23,74.3,64.8,55.9,55.7,49.7,40.5,68,58,46,29.68,29.41,18,6,25,0.00
2013-4-24,67.5,46.9,36.7,57.2,41.3,33.2,98,82,50,29.85,29.41,16,2,16,0.83
2013-4-25,70.3,45.5,34.3,40.4,36.0,32.8,98,75,33,29.94,29.82,8,2,11,0.00
2013-4-26,64.2,53.6,45.1,44.6,36.9,33.1,71,54,39,30.03,29.88,5,2,8,0.00
2013-4-27,58.3,56.9,50.0,57.5,55.7,44.8,98,96,74,29.91,29.47,6,2,8,0.12
2013-4-28,61.9,58.2,54.3,58.3,56.0,52.9,98,93,78,29.53,29.41,8,2,9,0.05
2013-4-29,81.3,65.1,53.6,57.1,52.5,48.2,98,69,37,29.59,29.47,8,2,10,0.00
2013-4-30,91.9,70.9,54.1,58.8,53.2,48.8,92,58,30,29.59,29.47,8,2,10,0.00
2013-5-1,93.4,73.0,56.8,62.4,56.7,51.4,87,60,33,29.71,29.59,9,1,9,0.00
2013-5-2,88.7,71.5,60.8,61.6,57.5,52.5,94,65,35,29.76,29.59,8,2,8,0.00
2013-5-3,82.2,69.9,57.6,61.4,56.7,51.5,89,65,40,29.62,29.35,17,4,18,0.00
2013-5-4,57.0,48.6,46.2,53.5,47.5,45.7,98,96,87,29.56,29.41,8,2,9,12.28
2013-5-5,64.8,54.8,47.5,57.8,52.7,47.0,98,93,71,29.53,29.38,8,2,9,0.83
2013-5-6,71.8,59.7,52.9,58.0,54.4,50.1,98,84,49,29.50,29.35,10,2,10,0.00
2013-5-7,83.5,63.9,52.0,61.5,55.6,51.2,98,79,40,29.59,29.47,9,1,10,0.00
2013-5-8,90.9,68.6,52.0,67.5,56.1,51.3,98,71,34,29.62,29.50,7,1,9,0.00
2013-5-9,83.7,69.8,58.3,65.1,59.8,53.6,96,74,41,29.62,29.47,18,3,18,0.04
2013-5-10,73.4,66.5,60.8,66.2,63.3,59.2,98,90,74,29.53,29.41,8,2,223,0.75
2013-5-11,75.0,61.1,53.1,59.2,50.6,33.0,96,71,43,29.68,29.47,14,3,14,0.00
2013-5-12,68.7,53.9,38.5,41.9,34.3,29.5,87,51,26,29.76,29.65,13,2,15,0.00
2013-5-13,77.4,57.6,37.8,45.4,35.0,8.8,96,52,9,29.82,29.71,22,1,22,0.00
2013-5-14,87.8,71.1,52.5,60.5,50.5,35.6,66,49,37,29.71,29.44,17,5,19,0.00
2013-5-15,90.0,77.2,67.1,60.4,57.1,51.0,73,52,33,29.59,29.47,18,5,18,0.00
2013-5-16,93.7,74.5,65.5,63.4,58.1,50.4,82,59,35,29.59,29.47,13,3,13,0.00
2013-5-17,72.9,68.2,66.0,66.3,63.2,60.6,93,84,74,29.62,29.50,4,1,7,0.00
2013-5-18,86.2,70.4,65.7,68.7,65.5,64.2,97,86,56,29.59,29.50,21,1,21,0.00
2013-5-19,97.5,82.1,66.0,76.8,72.2,65.4,98,74,48,29.56,29.41,6,2,6,0.00
2013-5-20,90.5,78.7,69.1,72.9,69.2,65.4,96,75,48,29.56,29.41,12,4,12,0.00
2013-5-21,84.7,73.0,65.1,69.3,66.3,62.3,98,81,50,29.53,29.35,24,4,24,8.21
2013-5-22,82.0,71.5,64.6,66.5,62.5,56.7,98,75,46,29.41,29.32,14,4,14,8.29
2013-5-23,76.6,66.0,54.7,64.1,56.8,47.3,97,74,46,29.74,29.38,13,2,14,0.00
2013-5-24,80.6,60.8,44.4,50.4,45.4,39.6,92,61,34,29.94,29.71,11,2,13,0.00
2013-5-25,86.9,66.9,48.0,52.8,47.6,42.5,96,58,24,29.94,29.71,6,1,7,0.00
2013-5-26,86.9,69.7,57.7,59.0,52.2,45.4,78,56,38,29.82,29.65,8,2,10,0.00
2013-5-27,89.1,74.9,60.1,63.5,58.5,53.5,83,59,34,29.68,29.50,16,4,16,0.00
2013-5-28,90.7,78.2,69.4,67.9,62.4,56.8,80,60,41,29.59,29.47,14,5,18,0.00
2013-5-29,91.2,78.4,63.3,65.3,61.5,57.3,88,59,38,29.68,29.53,13,4,13,8.29
2013-5-30,90.0,82.4,75.9,70.7,67.4,61.1,81,62,47,29.62,29.53,14,4,16,0.00
2013-5-31,81.3,75.2,68.5,73.7,70.2,67.2,98,85,70,29.59,29.47,15,4,16,0.79
2013-6-1,75.4,69.3,63.5,71.6,66.8,61.9,98,92,72,29.56,29.35,13,3,14,1.70
2013-6-2,85.8,71.8,63.3,68.2,62.0,56.9,98,75,42,29.56,29.47,8,2,9,0.00
2013-6-3,84.6,67.3,56.3,61.6,56.1,49.4,98,71,39,29.65,29.53,7,2,8,10.78
2013-6-4,91.9,70.9,53.4,61.6,56.9,52.5,98,67,34,29.68,29.53,6,1,7,0.00
2013-6-5,98.4,77.3,62.4,66.7,61.6,57.1,89,63,31,29.59,29.38,6,1,6,10.78
2013-6-6,94.3,75.5,66.7,71.7,66.4,61.1,98,76,40,29.41,29.32,6,1,6,0.21
2013-6-7,87.6,73.4,65.8,70.5,65.4,61.2,95,77,47,29.47,29.32,7,1,11,0.00
2013-6-8,94.3,75.4,62.6,66.3,61.1,55.0,97,66,34,29.59,29.41,5,1,6,0.00
2013-6-9,84.0,71.6,64.8,71.1,65.2,60.0,97,81,60,29.59,29.38,8,1,10,0.33
2013-6-10,87.4,71.3,65.7,71.8,66.5,61.4,98,86,49,29.50,29.35,5,1,6,0.41
2013-6-11,97.3,79.8,61.5,74.9,67.1,61.0,98,70,38,29.59,29.47,4,1,7,0.00
2013-6-12,98.4,85.7,73.8,76.5,73.9,70.3,94,70,45,29.59,29.35,11,4,15,0.00
2013-6-13,87.4,78.4,63.5,74.3,62.6,52.2,81,59,41,29.56,29.29,12,3,13,0.00
2013-6-14,93.6,73.5,57.2,62.8,57.7,52.4,94,63,30,29.65,29.53,8,1,13,11.73
2013-6-15,97.5,77.6,61.2,68.1,62.4,56.3,97,65,31,29.71,29.53,6,1,6,0.00
2013-6-16,93.4,76.7,68.9,72.3,68.1,63.3,96,77,44,29.62,29.50,10,1,10,0.00
2013-6-17,99.1,76.2,64.4,77.5,68.8,62.3,98,82,39,29.56,29.44,18,2,18,1.50
2013-6-18,99.3,76.9,64.0,68.2,64.9,60.0,98,72,36,29.56,29.41,10,2,13,0.12
2013-6-19,99.1,78.4,62.2,67.8,64.5,60.8,98,68,35,29.68,29.53,6,1,6,0.00
2013-6-20,103.8,81.9,67.5,69.8,65.5,61.3,89,62,30,29.76,29.65,5,1,6,13.35
2013-6-21,126.3,80.7,68.0,73.7,68.7,64.8,95,71,39,29.76,29.65,10,1,10,13.47
2013-6-22,97.7,80.6,69.1,74.0,68.9,63.9,97,72,37,29.74,29.59,10,2,10,14.27
2013-6-23,90.3,78.9,68.4,74.4,70.2,66.5,97,77,50,29.71,29.59,6,1,6,0.00
2013-6-24,82.8,72.7,68.2,74.6,70.0,67.6,98,92,72,29.76,29.59,5,1,5,1.61
2013-6-25,96.6,82.8,70.3,77.3,73.3,69.0,97,76,46,29.65,29.47,8,3,8,0.00
2013-6-26,90.5,81.5,73.9,77.1,73.9,69.4,94,79,61,29.53,29.29,13,4,15,0.00
2013-6-27,101.3,84.9,72.5,79.4,72.2,66.4,97,70,36,29.41,29.35,10,1,13,0.00
2013-6-28,101.3,82.9,69.1,74.2,65.9,54.7,90,61,29,29.41,29.20,8,1,8,0.00
2013-6-29,95.0,78.5,64.9,65.7,62.9,58.3,96,63,37,29.26,29.17,11,1,11,0.33
2013-6-30,89.1,70.4,64.8,68.8,65.6,63.1,98,87,46,29.41,29.23,9,1,9,16.21
2013-7-1,75.6,68.4,64.6,69.7,66.8,0.0,98,95,77,29.47,29.35,5,1,6,1.04
2013-7-2,86.2,71.7,64.2,69.7,65.4,61.7,98,83,47,29.59,29.44,7,1,9,0.00
2013-7-3,92.1,73.0,61.0,66.6,63.3,60.0,98,76,41,29.71,29.59,5,1,5,0.00
2013-7-4,79.5,71.0,64.0,71.3,67.3,63.5,98,89,69,29.71,29.59,9,1,9,0.00
2013-7-5,91.4,72.0,64.9,71.4,67.2,64.4,98,87,50,29.68,29.59,6,1,6,0.00
2013-7-6,91.0,77.4,65.5,69.9,67.7,64.5,98,75,45,29.71,29.59,6,2,8,0.58
2013-7-7,99.0,78.3,64.8,73.0,68.1,64.2,98,75,39,29.71,29.59,4,1,6,0.00
2013-7-8,100.6,82.4,69.3,75.7,70.6,66.1,97,72,37,29.74,29.62,5,1,7,0.00
2013-7-9,101.7,85.2,74.1,77.4,73.5,69.6,91,71,40,29.71,29.56,7,2,9,0.00
2013-7-10,96.1,83.6,73.8,78.7,74.1,67.7,92,75,46,29.59,29.47,10,2,10,0.00
2013-7-11,94.5,78.3,65.8,73.5,64.5,55.4,97,67,36,29.59,29.47,12,2,12,0.00
2013-7-12,94.8,75.4,60.1,63.9,59.0,54.5,97,62,32,29.68,29.59,10,1,10,17.83
2013-7-13,94.6,75.3,60.6,66.5,62.2,58.3,97,68,37,29.65,29.56,115,2,115,0.00
2013-7-14,99.0,81.0,67.1,74.6,69.3,64.1,97,72,39,29.76,29.62,6,1,8,0.13
2013-7-15,96.3,82.4,72.9,74.1,71.9,69.4,94,73,45,29.85,29.71,6,1,7,0.04
2013-7-16,107.8,85.6,70.7,76.3,72.3,68.5,97,70,32,29.94,29.82,4,1,5,0.00
2013-7-17,105.8,86.8,73.0,79.3,73.6,67.9,97,70,35,29.94,29.76,6,1,8,0.00
2013-7-18,105.8,85.1,74.1,79.9,74.5,68.3,97,75,37,29.79,29.59,5,1,8,0.04
2013-7-19,99.0,83.6,72.1,77.2,72.2,68.0,97,72,39,29.65,29.47,7,2,7,18.04
2013-7-20,97.5,81.5,70.3,76.0,71.4,64.3,97,75,43,29.53,29.41,12,2,15,0.41
2013-7-21,99.1,79.6,69.8,76.9,71.7,67.7,98,80,40,29.59,29.41,15,1,20,0.09
2013-7-22,95.7,79.1,71.2,74.9,71.4,68.7,98,80,45,29.47,29.35,5,1,6,0.00
2013-7-23,101.1,81.6,68.2,78.2,73.0,58.4,97,78,44,29.47,29.32,10,2,12,0.25
2013-7-24,90.7,75.2,65.1,67.8,62.6,57.0,97,69,38,29.56,29.41,8,2,12,0.00
2013-7-25,92.5,73.0,60.1,64.0,60.1,54.4,98,69,33,29.68,29.53,8,2,9,0.00
2013-7-26,91.9,74.1,59.4,68.8,61.3,57.7,98,70,35,29.68,29.56,6,1,6,0.00
2013-7-27,88.0,71.3,62.2,68.8,62.2,52.3,97,76,44,29.56,29.47,4,1,5,0.04
2013-7-28,88.5,70.9,53.8,59.4,53.4,50.8,97,61,30,29.65,29.56,3,1,4,0.00
2013-7-29,90.0,73.1,58.5,64.7,59.6,57.3,96,69,38,29.76,29.65,4,0,4,0.00
2013-7-30,76.3,70.3,67.5,68.7,66.1,61.1,98,87,62,29.76,29.65,6,1,6,0.58
2013-7-31,82.8,73.1,67.8,74.1,69.9,67.1,98,90,72,29.68,29.53,6,1,6,0.17
2013-8-1,93.9,77.0,65.1,71.4,65.6,56.9,98,73,39,29.62,29.53,8,1,9,0.00
2013-8-2,91.2,75.5,63.0,70.6,64.9,58.9,98,74,38,29.65,29.50,6,1,6,0.00
2013-8-3,91.4,77.1,69.3,77.3,70.8,67.6,96,82,57,29.65,29.53,6,1,7,0.00
2013-8-4,90.7,74.8,63.1,68.4,60.8,52.5,98,68,31,29.76,29.62,8,1,10,19.58
2013-8-5,91.9,72.6,59.4,67.5,62.0,28.6,98,74,34,29.71,29.50,6,1,9,0.00
2013-8-6,90.1,76.4,69.4,75.5,71.7,65.9,97,86,62,29.56,29.47,4,0,6,0.00
2013-8-7,94.5,79.4,71.6,76.7,73.1,67.2,98,83,47,29.53,29.44,4,1,6,19.58
2013-8-8,97.9,79.3,71.6,78.3,73.7,70.6,97,85,44,29.56,29.47,6,1,6,0.00
2013-8-9,92.7,78.4,73.0,76.8,73.6,71.3,97,87,57,29.62,29.47,6,1,6,0.08
2013-8-10,93.9,78.5,71.2,78.5,71.9,66.7,98,83,47,29.71,29.59,4,0,19,0.00
2013-8-11,98.2,80.7,70.2,75.3,69.7,64.8,97,74,38,29.71,29.62,6,1,6,0.00
2013-8-12,92.3,77.4,69.8,76.7,71.8,67.3,97,84,60,29.71,29.47,6,1,8,20.07
2013-8-13,88.2,75.8,64.4,73.7,68.5,61.4,98,80,52,29.65,29.47,8,2,10,0.00
2013-8-14,82.2,65.8,55.4,56.6,52.4,47.7,93,66,33,29.74,29.65,8,1,9,0.00
2013-8-15,87.1,67.5,54.0,61.6,54.4,50.4,98,69,32,29.74,29.62,9,1,9,0.00
2013-8-16,91.6,71.3,56.5,65.2,59.3,55.5,98,70,34,29.71,29.65,6,1,8,20.07
2013-8-17,86.5,72.6,63.7,68.2,64.9,61.6,97,78,50,29.76,29.65,6,1,8,0.00
2013-8-18,93.6,73.7,63.0,72.0,66.1,62.4,98,81,40,29.76,29.65,5,1,8,0.05
2013-8-19,93.2,74.0,64.4,73.9,66.7,63.6,98,82,42,29.74,29.59,8,0,8,0.00
2013-8-20,98.1,83.3,64.6,74.7,69.1,63.8,98,65,38,29.74,29.59,6,1,7,0.00
2013-8-21,100.0,82.9,68.4,77.0,69.9,64.2,97,69,37,29.76,29.62,6,1,6,0.00
2013-8-22,101.5,82.9,69.1,77.1,70.1,63.8,98,71,35,29.74,29.59,5,1,6,0.00
2013-8-23,96.6,79.8,70.3,79.4,71.3,65.6,97,79,43,29.71,29.59,7,1,7,0.03
2013-8-24,100.0,80.1,66.6,72.4,65.5,56.8,97,66,31,29.82,29.68,8,1,9,0.00
2013-8-25,98.8,77.4,62.2,73.8,67.9,60.8,96,75,42,29.91,29.76,6,1,6,0.00
2013-8-26,97.3,80.9,68.9,73.7,70.8,67.1,96,74,42,29.88,29.68,6,1,6,0.00
2013-8-27,97.3,80.8,71.2,76.1,72.5,69.7,95,78,46,29.71,29.59,6,1,7,0.00
2013-8-28,102.7,83.8,70.7,75.7,70.2,64.6,97,69,32,29.65,29.53,6,1,8,0.00
2013-8-29,103.8,84.5,72.5,76.4,73.5,70.1,95,73,40,29.62,29.53,6,1,7,0.00
2013-8-30,106.5,86.2,71.1,78.9,72.0,64.6,98,68,29,29.56,29.44,6,1,9,0.00
2013-8-31,102.4,85.6,74.8,78.8,75.0,71.8,95,73,40,29.47,29.32,7,2,7,0.00
2013-9-1,96.6,80.7,68.0,75.1,70.7,65.5,98,74,46,29.47,29.35,23,2,30,22.61
2013-9-2,97.3,79.8,68.5,76.9,71.0,65.6,97,77,46,29.50,29.41,6,0,9,22.61
2013-9-3,91.4,74.0,62.6,66.7,63.5,58.4,97,74,39,29.68,29.47,8,1,9,0.00
2013-9-4,92.8,72.0,58.1,67.0,60.2,55.6,98,72,34,29.76,29.65,6,1,7,0.00
2013-9-5,95.5,74.5,59.9,73.3,62.8,58.0,98,73,33,29.79,29.71,6,1,6,0.00
2013-9-6,97.5,73.8,63.1,71.8,64.8,60.8,98,80,34,29.79,29.68,6,0,57,0.00
2013-9-7,96.6,76.0,64.2,72.1,66.2,63.7,98,77,38,29.68,29.53,4,1,5,0.00
2013-9-8,82.8,73.5,69.6,74.3,70.7,68.5,97,91,73,29.59,29.50,4,0,4,22.61
2013-9-9,99.3,82.4,70.5,74.4,71.4,69.0,95,73,41,29.62,29.53,4,1,4,22.61
2013-9-10,99.9,83.5,74.7,76.9,73.5,70.2,95,75,40,29.74,29.59,6,2,6,0.00
2013-9-11,100.4,83.3,71.2,77.9,72.8,69.0,96,73,40,29.76,29.62,6,2,6,0.00
2013-9-12,97.3,77.9,66.7,75.5,67.8,59.1,98,75,38,29.65,29.50,9,2,10,0.00
2013-9-13,81.9,66.3,52.7,59.3,52.3,45.1,94,64,37,29.68,29.56,15,2,15,22.61
2013-9-14,84.0,62.7,47.7,56.5,48.7,44.0,98,66,30,29.76,29.65,7,1,11,0.00
2013-9-15,86.9,67.0,49.1,61.1,54.2,48.5,98,69,33,29.71,29.62,6,1,7,0.00
2013-9-16,85.5,70.0,61.3,65.5,61.1,58.5,93,75,46,29.79,29.65,8,1,8,22.61
2013-9-17,90.3,70.2,59.4,60.7,58.5,55.1,98,69,35,29.82,29.68,6,1,6,0.00
2013-9-18,87.1,72.9,63.7,72.0,66.2,57.9,94,80,57,29.74,29.59,6,1,7,0.04
2013-9-19,91.2,77.3,68.2,72.9,69.8,67.2,97,80,50,29.71,29.53,8,2,10,0.00
2013-9-20,84.2,73.0,68.0,74.1,69.1,67.0,98,88,65,29.59,29.41,9,2,9,2.33
2013-9-21,79.7,67.3,57.0,67.4,55.6,47.0,98,70,37,29.47,29.35,10,3,13,0.33
2013-9-22,84.4,67.5,54.3,53.8,50.6,44.6,95,60,31,29.56,29.47,6,1,10,0.00
2013-9-23,84.9,64.8,51.1,55.2,51.8,47.2,98,68,32,29.62,29.53,8,1,9,0.00
2013-9-24,92.7,70.4,55.8,65.6,58.7,51.9,94,70,38,29.59,29.41,9,1,9,0.00
2013-9-25,90.5,72.2,64.0,68.7,64.1,58.5,98,79,41,29.47,29.38,6,0,6,0.00
2013-9-26,92.5,72.0,59.4,70.4,59.9,52.8,98,71,31,29.62,29.47,8,1,8,0.00
2013-9-27,91.8,70.1,53.6,65.1,56.8,50.4,98,69,30,29.74,29.62,6,1,8,0.00
2013-9-28,85.8,70.6,61.0,63.9,57.9,53.3,91,67,37,29.76,29.62,11,2,11,0.00
2013-9-29,65.3,63.5,62.2,63.2,60.8,57.7,98,91,78,29.68,29.59,6,2,6,0.79
2013-9-30,81.1,68.5,63.1,66.2,63.6,61.4,98,86,54,29.62,29.53,6,1,8,0.00
2013-10-1,87.8,73.0,63.0,69.0,65.8,61.8,97,80,49,29.71,29.59,6,1,7,0.00
2013-10-2,85.5,73.2,66.0,75.2,69.2,65.4,98,88,66,29.71,29.59,6,1,6,0.04
2013-10-3,89.6,75.5,69.1,71.9,66.7,60.2,97,77,41,29.68,29.53,9,1,9,0.00
2013-10-4,91.8,77.2,67.6,72.4,68.5,64.6,94,76,48,29.68,29.59,6,2,7,0.00
2013-10-5,85.1,73.2,68.2,76.0,69.9,67.6,98,90,68,29.65,29.41,9,2,10,2.20
2013-10-6,68.5,60.2,48.2,68.0,55.4,41.2,98,85,59,29.53,29.35,10,2,10,31.20
2013-10-7,73.4,56.2,46.6,51.7,45.8,42.3,97,72,36,29.76,29.47,9,1,10,0.00
2013-10-8,75.4,58.1,46.6,55.6,46.0,40.2,98,71,31,29.82,29.71,10,1,15,0.00
2013-10-9,89.1,64.4,47.7,60.7,54.3,46.4,98,74,38,29.82,29.71,6,0,6,0.00
2013-10-10,92.5,68.8,54.9,65.1,56.8,52.0,98,71,31,29.76,29.62,5,0,6,0.00
2013-10-11,91.2,67.6,52.9,61.8,55.6,51.5,98,71,33,29.71,29.59,6,0,6,0.00
2013-10-12,85.8,67.8,55.2,64.4,59.3,54.6,98,78,42,29.74,29.59,5,0,6,0.00
2013-10-13,83.8,66.7,51.4,64.8,54.0,43.4,97,68,37,29.88,29.71,11,2,11,0.00
2013-10-14,77.7,60.9,48.2,57.0,51.3,45.7,94,74,42,29.88,29.71,5,1,6,0.00
2013-10-15,71.8,64.7,57.9,66.1,61.9,55.8,98,91,75,29.71,29.53,8,1,9,0.00
2013-10-16,69.3,60.3,47.3,65.1,52.7,43.8,97,78,47,29.59,29.47,6,1,8,0.00
2013-10-17,68.7,53.8,46.2,54.0,46.6,42.6,98,80,45,29.59,29.53,6,1,8,0.12
2013-10-18,75.2,56.9,45.3,54.7,46.7,40.8,98,74,35,29.65,29.53,6,1,6,0.00
2013-10-19,60.1,51.7,41.4,49.6,43.2,34.3,97,75,45,29.62,29.47,7,1,8,0.29
2013-10-20,67.5,54.0,40.6,45.3,41.3,38.6,98,66,39,29.71,29.59,9,2,10,0.00
2013-10-21,72.9,55.6,42.3,49.5,44.4,39.4,93,69,40,29.65,29.53,11,2,11,0.00
2013-10-22,67.5,51.0,35.4,45.4,37.0,32.1,97,63,32,29.68,29.41,8,1,8,0.29
2013-10-23,52.7,45.6,40.3,44.5,32.9,25.0,87,62,42,29.71,29.44,11,2,15,0.00
2013-10-24,51.6,43.3,29.7,38.4,30.8,20.8,83,63,39,29.97,29.71,11,2,12,0.00
2013-10-25,58.6,39.9,25.9,32.3,26.0,21.4,89,63,34,30.09,29.91,6,1,6,0.00
2013-10-26,60.6,50.0,32.4,42.9,35.7,24.9,84,60,40,29.91,29.59,13,2,13,0.00
2013-10-27,70.0,49.3,33.3,44.8,36.6,31.1,98,67,31,29.74,29.59,6,0,6,0.29
2013-10-28,77.2,56.1,42.8,44.8,39.4,35.2,85,58,27,29.88,29.65,7,1,8,0.00
2013-10-29,59.7,52.8,42.4,59.0,51.1,38.0,98,94,84,29.91,29.71,5,0,6,0.13
2013-10-30,78.3,68.4,59.5,65.9,62.4,58.0,98,82,60,29.74,29.59,8,3,9,0.08
2013-10-31,68.9,64.6,57.0,66.8,61.3,52.6,98,89,62,29.59,29.00,19,6,22,0.37
2013-11-1,71.4,57.4,48.6,57.6,47.2,40.1,98,72,37,29.44,29.20,11,2,11,32.86
2013-11-2,67.1,47.9,37.6,47.3,40.7,35.3,97,78,43,29.79,29.41,11,1,12,0.00
2013-11-3,64.8,46.0,33.1,46.6,35.0,29.5,98,70,35,29.94,29.76,6,1,6,0.00
2013-11-4,63.7,52.8,41.7,41.8,38.5,34.7,79,60,44,29.91,29.82,14,2,15,0.00
2013-11-5,69.1,59.5,52.5,45.3,41.1,0.0,60,51,41,29.97,29.76,10,2,10,0.00
2013-11-6,62.6,56.3,43.5,60.2,48.8,40.1,98,79,49,29.82,29.59,13,4,16,0.33
2013-11-7,58.1,43.4,34.9,41.0,31.2,23.3,97,67,31,29.97,29.76,10,1,10,0.00
2013-11-8,63.5,45.1,30.2,43.1,28.4,22.2,96,58,27,30.00,29.82,6,1,6,0.00
2013-11-9,67.1,51.5,39.4,39.4,32.6,22.2,73,50,33,29.82,29.71,15,3,17,1.20
2013-11-10,64.2,47.3,33.3,46.1,33.5,24.3,96,63,29,30.00,29.76,10,1,10,0.00
2013-11-11,70.2,51.0,33.3,44.3,32.6,18.6,91,56,15,29.94,29.71,18,2,23,0.00
2013-11-12,47.1,36.0,27.0,39.3,22.9,16.2,90,60,40,30.30,29.85,19,6,22,0.00
2013-11-13,48.7,33.8,20.5,26.7,19.8,14.9,90,59,37,30.30,30.00,7,1,8,0.00
2013-11-14,59.0,43.0,29.3,26.0,13.3,-10.8,60,36,6,30.03,29.71,14,4,14,0.00
2013-11-15,51.8,46.3,39.6,49.5,32.7,17.3,98,62,37,29.76,29.65,8,2,8,18.33
2013-11-16,65.3,58.6,50.0,61.1,55.3,47.9,98,89,79,29.65,29.41,16,4,18,7.63
2013-11-17,71.1,63.9,51.1,66.5,56.3,31.4,98,79,35,29.50,29.12,24,6,25,2.33
2013-11-18,62.4,49.1,33.8,44.1,32.9,23.0,92,56,35,29.85,29.50,14,2,14,0.00
2013-11-19,53.2,39.4,31.1,30.8,26.8,24.4,86,62,39,29.94,29.82,8,2,9,0.00
2013-11-20,61.0,45.2,29.8,34.3,29.5,24.6,83,56,36,29.85,29.71,10,2,10,28.44
2013-11-21,66.0,55.6,48.6,53.6,43.4,30.1,91,65,47,29.85,29.76,16,3,16,0.04
2013-11-22,56.8,50.0,40.8,56.1,46.8,33.5,98,89,74,30.00,29.76,16,4,58,0.04
2013-11-23,46.8,34.3,22.3,33.5,20.4,7.8,87,59,29,30.24,29.97,21,6,22,0.00
2013-11-24,36.1,26.0,17.6,14.8,10.5,7.7,70,52,40,30.33,30.09,10,3,11,0.00
2013-11-25,40.6,33.5,27.0,32.9,20.1,11.2,93,60,41,30.12,29.76,13,3,15,0.00
2013-11-26,38.1,35.5,32.5,34.5,29.0,18.4,97,79,54,29.82,29.53,18,4,18,0.04
2013-11-27,34.2,24.7,15.8,16.8,8.7,3.7,70,51,36,29.97,29.62,16,4,18,0.00
2013-11-28,43.7,27.9,15.8,18.5,13.1,7.0,77,55,35,30.06,29.88,18,3,19,0.00
2013-11-29,55.2,36.1,20.8,29.4,21.3,14.7,85,57,35,30.21,30.00,6,1,8,0.00
2013-11-30,58.5,43.3,28.8,30.9,23.4,18.1,74,48,26,30.03,29.76,18,4,18,0.00
2013-12-1,60.6,47.7,37.8,37.5,30.2,22.2,83,52,38,29.76,29.47,10,3,10,34.89
2013-12-2,63.1,48.6,35.1,44.8,38.8,31.8,94,71,44,29.53,29.29,7,1,7,0.00
2013-12-3,61.7,52.7,44.8,55.1,48.4,43.3,98,87,58,29.41,29.29,11,2,13,0.00
2013-12-4,71.2,62.7,52.3,61.8,56.7,51.3,98,83,56,29.35,29.23,20,6,22,0.00
2013-12-5,62.6,36.9,29.7,62.0,33.3,26.8,98,87,69,29.82,29.35,13,5,21,0.62
2013-12-6,30.9,26.8,22.3,29.9,24.5,17.4,96,91,81,30.06,29.71,12,4,12,0.05
2013-12-7,33.1,21.7,13.5,18.8,13.8,8.3,86,72,49,30.24,30.00,11,3,11,0.00
2013-12-8,36.1,30.5,22.8,32.9,27.9,18.3,98,90,78,30.03,29.59,8,3,9,0.00
2013-12-9,42.6,30.8,24.6,32.4,22.2,12.8,98,72,43,29.88,29.65,8,2,9,0.00
2013-12-10,39.6,26.7,21.0,18.7,16.7,13.5,83,67,41,29.97,29.79,11,3,11,0.00
2013-12-11,45.1,29.8,20.8,25.5,20.8,15.1,91,72,44,30.03,29.94,8,3,10,0.00
2013-12-12,36.1,22.5,8.1,12.4,5.2,-4.0,67,48,27,30.21,29.94,8,2,9,0.00
2013-12-13,45.1,32.2,20.8,33.8,20.5,7.4,95,64,40,29.97,29.62,14,3,14,0.00
2013-12-14,39.2,36.1,33.6,38.7,34.6,28.2,98,94,80,29.65,29.35,11,3,57,0.00
2013-12-15,33.4,31.2,28.6,29.6,24.3,19.8,87,75,59,29.79,29.62,12,4,15,0.00
2013-12-16,52.5,39.2,32.2,34.5,30.6,28.0,87,73,47,29.74,29.59,12,4,12,0.12
2013-12-17,42.4,34.0,26.4,36.7,28.0,22.5,90,79,55,29.85,29.59,10,2,11,0.00
2013-12-18,49.8,37.3,22.6,28.8,19.7,-2.7,90,55,11,29.94,29.65,15,4,15,0.00
2013-12-19,62.2,51.6,41.4,46.5,36.2,20.6,73,56,42,29.71,29.50,24,7,24,0.00
2013-12-20,63.1,59.2,52.2,60.9,53.6,41.5,95,83,57,29.53,29.38,18,9,20,0.09
2013-12-21,67.8,59.6,48.9,65.0,58.6,48.1,98,97,85,29.44,29.03,15,5,18,0.04
2013-12-22,60.6,43.3,35.4,60.1,41.6,30.2,98,94,75,29.79,29.06,18,4,23,0.04
2013-12-23,35.6,30.7,26.8,31.1,21.3,15.7,84,68,59,30.06,29.74,10,3,12,0.00
2013-12-24,31.1,21.0,13.6,16.4,6.3,1.9,65,53,36,30.21,30.03,13,3,13,0.00
2013-12-25,45.1,31.9,17.6,24.2,16.6,7.2,73,54,39,30.06,29.82,15,4,15,0.00
2013-12-26,48.2,33.6,25.9,30.5,24.0,17.0,89,69,39,30.03,29.82,7,1,8,0.00
2013-12-27,54.3,36.4,26.1,31.7,24.8,19.3,80,64,40,30.06,29.88,10,2,10,0.00
2013-12-28,48.6,40.6,31.6,34.5,27.5,23.7,83,61,44,29.94,29.53,8,2,8,0.04
2013-12-29,56.7,38.4,27.3,44.2,32.7,19.8,98,81,48,29.79,29.47,13,3,14,0.24
2013-12-30,35.6,26.2,19.6,19.6,13.7,7.5,80,60,40,29.91,29.76,10,2,11,0.00
2013-12-31,46.8,32.3,20.3,23.0,18.4,12.6,76,58,38,30.03,29.82,8,3,9,0.00
2014-1-1,49.6,38.5,29.7,31.3,25.3,19.7,83,60,42,29.85,29.53,14,4,15,0.00
2014-1-2,38.3,26.1,16.2,36.9,17.8,6.4,98,71,55,30.00,29.44,20,5,24,0.09